Cadillac, MI

11:47 AM EDT on June 27, 2017 (GMT -0400)
Wexford County

Weather History for KCAD - April, 2013

Change the Weather History Date:

Wednesday, April 17, 2013

  Actual Average Record
Temperature  
Mean Temperature 38 °F -  
Max Temperature 49 °F 53 °F 80 °F (1976)
Min Temperature 26 °F 34 °F 11 °F (1949)
Degree Days  
Heating Degree Days 28    
Moisture  
Dew Point 30 °F    
Average Humidity 75    
Maximum Humidity 90    
Minimum Humidity 44    
Precipitation  
Precipitation 0.00 in - - ()
Sea Level Pressure  
Sea Level Pressure 30.22 in    
Wind  
Wind Speed 7 mph (East)    
Max Wind Speed 18 mph    
Max Gust Speed 24 mph    
Visibility 9 miles    
Events Rain , Snow    
Averages and records for this station are not official NWS values.
T = Trace of Precipitation, MM = Missing Value Source: NWS Daily Summary

Daily Weather History Graph

Daily Weather History Graph

Search for Another Location

Airport or City:

Trip Planner

Search our weather history database for the weather conditions in past years. The results will help you decide how hot, cold, wet, or windy it might be!

Date:

Astronomy

Apr. 17, 2013 Rise Set
Actual Time 6:54 AM EDT 8:28 PM EDT
Civil Twilight 6:23 AM EDT 8:59 PM EDT
Nautical Twilight 5:47 AM EDT 9:36 PM EDT
Astronomical Twilight 5:07 AM EDT 10:16 PM EDT
Moon 12:03 PM EDT (4/17) 2:10 AM EDT (4/17)
Length of Visible Light 14h 35m
Length of Day
13h 34m
Waxing Crescent, 42% of the Moon is Illuminated
Apr 17
Waxing Crescent
Apr 18
First Quarter
Apr 25
Full
May 2
Last Quarter
May 9
New

Hourly Weather History & Observations

Time (EDT) Temp. Windchill Dew Point Humidity Pressure Visibility Wind Dir Wind Speed Gust Speed Precip Events Conditions
12:15 AM 36.1 °F 31.4 °F 28.2 °F 73% 30.25 in 10.0 mi North 5.8 mph - N/A   Clear
12:35 AM 36.1 °F - 28.4 °F 73% 30.27 in 10.0 mi Calm Calm - N/A   Clear
12:55 AM 33.8 °F - 27.0 °F 76% 30.28 in 10.0 mi Calm Calm - N/A   Clear
1:15 AM 32.4 °F 26.9 °F 26.6 °F 79% 30.27 in 10.0 mi North 5.8 mph - N/A   Clear
1:35 AM 33.8 °F 27.7 °F 26.8 °F 75% 30.28 in 10.0 mi North 6.9 mph - N/A   Clear
1:55 AM 33.8 °F 28.6 °F 26.8 °F 75% 30.29 in 10.0 mi North 5.8 mph - N/A   Clear
2:15 AM 33.8 °F - 26.6 °F 75% 30.30 in 10.0 mi Calm Calm - N/A   Clear
2:35 AM 33.8 °F 30.8 °F 27.3 °F 77% 30.30 in 10.0 mi North 3.5 mph - N/A   Clear
2:55 AM 32.2 °F 28.9 °F 26.4 °F 79% 30.30 in 10.0 mi NNW 3.5 mph - N/A   Clear
3:15 AM 32.4 °F 29.1 °F 27.1 °F 81% 30.30 in 10.0 mi North 3.5 mph - N/A   Clear
3:35 AM 31.5 °F - 27.0 °F 83% 30.31 in 10.0 mi Calm Calm - N/A   Clear
3:55 AM 31.5 °F 28.1 °F 27.5 °F 85% 30.32 in 10.0 mi North 3.5 mph - N/A   Clear
4:15 AM 31.5 °F - 27.5 °F 85% 30.32 in 10.0 mi Calm Calm - N/A   Clear
4:35 AM 31.5 °F - 27.5 °F 85% 30.32 in 10.0 mi Calm Calm - N/A   Clear
4:55 AM 31.3 °F - 27.7 °F 87% 30.32 in 10.0 mi Calm Calm - N/A   Clear
5:14 AM 29.1 °F - 25.9 °F 88% 30.31 in 10.0 mi Calm Calm - N/A   Clear
5:35 AM 28.9 °F 25.2 °F 25.7 °F 88% 30.32 in 10.0 mi North 3.5 mph - N/A   Clear
5:53 AM 27.5 °F - 24.8 °F 90% 30.32 in 10.0 mi Calm Calm - N/A   Clear
6:15 AM 27.5 °F - 24.4 °F 88% 30.32 in 10.0 mi Calm Calm - N/A   Clear
6:35 AM 26.6 °F - 23.7 °F 89% 30.32 in 10.0 mi Calm Calm - N/A   Clear
6:54 AM 28.9 °F - 26.2 °F 90% 30.32 in 10.0 mi Calm Calm - N/A   Clear
7:15 AM 26.4 °F 22.4 °F 23.5 °F 89% 30.32 in 10.0 mi NE 3.5 mph - N/A   Clear
7:35 AM 31.5 °F 28.1 °F 28.2 °F 88% 30.31 in 10.0 mi NE 3.5 mph - N/A   Clear
7:55 AM 31.5 °F 28.1 °F 27.3 °F 85% 30.31 in 10.0 mi ENE 3.5 mph - N/A   Clear
8:15 AM 32.4 °F 26.9 °F 28.4 °F 85% 30.31 in 10.0 mi East 5.8 mph - N/A   Clear
8:34 AM 33.8 °F 27.0 °F 28.9 °F 82% 30.31 in 10.0 mi ENE 8.1 mph - N/A   Clear
8:55 AM 36.1 °F 29.9 °F 29.8 °F 78% 30.32 in 10.0 mi East 8.1 mph - N/A   Clear
9:15 AM 37.0 °F 31.6 °F 29.3 °F 74% 30.33 in 10.0 mi ENE 6.9 mph - N/A   Clear
9:34 AM 38.7 °F 32.4 °F 28.2 °F 66% 30.31 in 10.0 mi East 9.2 mph - N/A   Clear
10:15 AM 41.2 °F 35.0 °F 27.3 °F 58% 30.30 in 10.0 mi East 10.4 mph - N/A   Clear
10:34 AM 42.3 °F 37.3 °F 27.1 °F 55% 30.31 in 10.0 mi ESE 8.1 mph - N/A   Clear
10:55 AM 42.4 °F 38.8 °F 26.6 °F 54% 30.31 in 10.0 mi ESE 5.8 mph - N/A   Clear
11:15 AM 43.9 °F 38.8 °F 26.1 °F 50% 30.30 in 10.0 mi ESE 9.2 mph - N/A   Clear
11:35 AM 44.8 °F 39.4 °F 25.9 °F 48% 30.30 in 10.0 mi East 10.4 mph 16.1 mph N/A   Clear
11:55 AM 44.8 °F 39.4 °F 27.0 °F 50% 30.30 in 10.0 mi ESE 10.4 mph - N/A   Clear
12:14 PM 46.0 °F 41.0 °F 27.5 °F 48% 30.27 in 10.0 mi East 10.4 mph - N/A   Clear
12:35 PM 48.2 °F - 28.2 °F 46% 30.27 in 10.0 mi ESE 9.2 mph - N/A   Clear
12:55 PM 49.1 °F - 27.7 °F 44% 30.27 in 10.0 mi ESE 10.4 mph 17.3 mph N/A   Clear
1:14 PM 49.1 °F - 27.7 °F 44% 30.26 in 10.0 mi ESE 10.4 mph - N/A   Clear
1:35 PM 49.6 °F - 28.9 °F 45% 30.25 in 10.0 mi ESE 12.7 mph 18.4 mph N/A   Scattered Clouds
1:55 PM 49.1 °F - 28.4 °F 45% 30.22 in 10.0 mi ESE 15.0 mph - N/A   Mostly Cloudy
2:14 PM 47.8 °F - 28.8 °F 48% 30.21 in 10.0 mi East 16.1 mph 20.7 mph N/A   Overcast
2:35 PM 49.3 °F - 29.5 °F 46% 30.19 in 10.0 mi East 16.1 mph - N/A   Overcast
2:55 PM 49.1 °F - 29.5 °F 47% 30.19 in 10.0 mi East 16.1 mph 23.0 mph N/A   Overcast
3:14 PM 49.1 °F - 29.8 °F 47% 30.21 in 10.0 mi East 15.0 mph 19.6 mph N/A   Overcast
3:35 PM 49.1 °F - 31.5 °F 51% 30.19 in 10.0 mi ESE 17.3 mph 20.7 mph N/A   Overcast
3:55 PM 45.1 °F 39.9 °F 32.7 °F 62% 30.21 in 10.0 mi SE 10.4 mph - N/A Rain Light Rain
4:35 PM 42.8 °F 36.2 °F 35.2 °F 75% 30.19 in 10.0 mi East 12.7 mph - N/A Rain Light Rain
4:55 PM 42.4 °F 37.0 °F 36.3 °F 79% 30.17 in 10.0 mi East 9.2 mph - N/A Rain Light Rain
5:15 PM 41.2 °F 35.5 °F 36.0 °F 82% 30.18 in 10.0 mi East 9.2 mph - N/A Rain Rain
5:35 PM 41.2 °F 36.0 °F 36.5 °F 83% 30.18 in 7.0 mi East 8.1 mph - N/A Rain Rain
5:55 PM 41.0 °F 33.9 °F 36.3 °F 83% 30.16 in 5.0 mi East 12.7 mph - N/A Rain Rain
6:15 PM 38.7 °F 30.1 °F 34.2 °F 84% 30.16 in 5.0 mi East 15.0 mph 19.6 mph N/A Rain Rain
6:35 PM 38.7 °F 31.4 °F 34.7 °F 86% 30.15 in 4.0 mi East 11.5 mph - N/A Rain Rain
6:55 PM 38.7 °F 30.5 °F 34.7 °F 86% 30.13 in 4.0 mi East 13.8 mph 20.7 mph N/A Rain Light Rain
7:15 PM 38.7 °F 30.1 °F 34.7 °F 86% 30.12 in 7.0 mi East 15.0 mph 21.9 mph N/A Rain Light Rain
7:35 PM 38.7 °F 30.5 °F 34.9 °F 86% 30.13 in 7.0 mi East 13.8 mph 21.9 mph N/A Rain Light Rain
7:55 PM 38.7 °F 30.5 °F 35.1 °F 87% 30.10 in 4.0 mi East 13.8 mph 23.0 mph N/A Rain Light Rain
8:15 PM 38.7 °F 30.1 °F 35.1 °F 87% 30.08 in 10.0 mi East 15.0 mph 19.6 mph N/A Rain Light Rain
8:35 PM 38.7 °F 29.1 °F 35.1 °F 87% 30.08 in 10.0 mi ESE 18.4 mph 24.2 mph N/A Rain Light Rain
8:55 PM 38.7 °F 30.9 °F 35.1 °F 87% 30.08 in 10.0 mi ESE 12.7 mph 21.9 mph N/A   Light Drizzle
9:15 PM 37.6 °F 28.4 °F 34.3 °F 88% 30.06 in 2.0 mi East 16.1 mph 19.6 mph N/A Rain Light Rain
9:35 PM 37.4 °F 28.5 °F 34.3 °F 89% 30.04 in 2.5 mi East 15.0 mph 23.0 mph N/A Snow Light Snow
9:55 PM 36.7 °F 27.2 °F 33.6 °F 89% 30.04 in 10.0 mi East 16.1 mph 21.9 mph N/A   Overcast
10:15 PM 36.1 °F 26.5 °F 33.1 °F 89% 30.03 in 3.0 mi East 16.1 mph 24.2 mph N/A Rain Light Rain
10:35 PM 36.1 °F 26.9 °F 33.3 °F 89% 30.03 in 1.8 mi East 15.0 mph 20.7 mph N/A Snow Light Snow
10:54 PM 37.4 °F 28.5 °F 34.7 °F 90% 30.03 in 7.0 mi East 15.0 mph 18.4 mph N/A   Overcast
11:15 PM 37.4 °F 29.8 °F 34.7 °F 90% 30.02 in 10.0 mi East 11.5 mph 18.4 mph N/A   Overcast
11:35 PM 38.7 °F 30.9 °F 36.0 °F 90% 30.00 in 10.0 mi East 12.7 mph 18.4 mph N/A   Overcast
11:54 PM 38.7 °F 30.5 °F 36.0 °F 90% 30.00 in 10.0 mi East 13.8 mph 19.6 mph N/A   Overcast